Weather History for Miles City, MT

Change the Weather History Date:

Monday, March 25, 2013

  Actual Average Record
Temperature  
Mean Temperature 22 °F 38 °F  
Max Temperature 39 °F 50 °F 78 °F (2007)
Min Temperature 5 °F 26 °F -10 °F (1937)
Degree Days  
Heating Degree Days 43 27  
Month to date heating degree days 843 789  
Since 1 July heating degree days 6037 6523  
Cooling Degree Days 0 0  
Month to date cooling degree days 0 0  
Year to date cooling degree days 0 0  
Moisture  
Dew Point 12 °F    
Average Humidity 66    
Maximum Humidity 88    
Minimum Humidity 44    
Precipitation  
Precipitation 0.00 in 0.02 in 0.32 in (1950)
Month to date precipitation 0.37 0.43  
Year to date precipitation 0.56 0.98  
Sea Level Pressure  
Sea Level Pressure 30.34 in    
Wind  
Wind Speed 9 mph (SE)    
Max Wind Speed 15 mph    
Max Gust Speed 21 mph    
Visibility 10 miles    
Events      
T = Trace of Precipitation, MM = Missing Value Source: NWS Daily Summary

Daily Weather History Graph

Daily Weather History Graph

Search for Another Location

Airport:

Trip Planner

Search our weather history database for the weather conditions in past years. The results will help you decide how hot, cold, wet, or windy it might be!

Date:

Astronomy

Mar. 25, 2013 Rise Set
Actual Time 6:56 AM MDT 7:23 PM MDT
Civil Twilight 6:25 AM MDT 7:53 PM MDT
Nautical Twilight 5:50 AM MDT 8:29 PM MDT
Astronomical Twilight 5:13 AM MDT 9:06 PM MDT
Moon 5:55 PM MDT (3/25) 5:45 AM MDT (3/25)
Length of Visible Light 13h 27m
Length of Day
12h 27m
Waxing Gibbous, 97% of the Moon is Illuminated
Mar 25
Waxing Gibbous
Mar 27
Full
Apr 2
Last Quarter
Apr 10
New
Apr 18
First Quarter

Hourly Weather History & Observations

Time (MDT) Temp. Windchill Dew Point Humidity Pressure Visibility Wind Dir Wind Speed Gust Speed Precip Events Conditions
12:53 AM 12.9 °F - 9.0 °F 84% 30.46 in 10.0 mi Calm Calm - N/A   Clear
1:53 AM 10.9 °F 4.7 °F 6.1 °F 81% 30.46 in 10.0 mi SSE 3.5 mph - N/A   Clear
2:53 AM 8.1 °F -2.0 °F 5.0 °F 87% 30.46 in 10.0 mi SSE 5.8 mph - N/A   Clear
3:53 AM 8.1 °F -0.5 °F 5.0 °F 87% 30.45 in 10.0 mi SSE 4.6 mph - N/A   Clear
4:53 AM 7.0 °F -4.5 °F 3.0 °F 84% 30.44 in 10.0 mi SSE 6.9 mph - N/A   Clear
5:53 AM 7.0 °F -5.7 °F 3.0 °F 84% 30.45 in 10.0 mi SE 8.1 mph - N/A   Clear
6:53 AM 7.0 °F -6.6 °F 3.0 °F 84% 30.44 in 10.0 mi SE 9.2 mph - N/A   Clear
7:33 AM 6.8 °F -7.8 °F 3.2 °F 85% 30.29 in 10.0 mi SSE 10.4 mph - N/A   Scattered Clouds
7:53 AM 8.1 °F -4.3 °F 3.9 °F 83% 30.44 in 10.0 mi SSE 8.1 mph - N/A   Scattered Clouds
8:53 AM 12.0 °F -0.4 °F 8.1 °F 84% 30.43 in 10.0 mi SSE 9.2 mph - N/A   Clear
9:53 AM 16.0 °F 6.3 °F 12.0 °F 84% 30.43 in 10.0 mi SSE 6.9 mph - N/A   Clear
10:53 AM 21.0 °F 11.4 °F 15.1 °F 78% 30.40 in 10.0 mi SSE 8.1 mph - N/A   Clear
11:53 AM 26.1 °F 16.8 °F 17.1 °F 69% 30.38 in 10.0 mi South 9.2 mph - N/A   Clear
12:53 PM 30.0 °F 21.1 °F 17.1 °F 59% 30.35 in 10.0 mi SE 10.4 mph - N/A   Clear
1:53 PM 33.1 °F 25.5 °F 19.0 °F 56% 30.32 in 10.0 mi SE 9.2 mph - N/A   Clear
2:53 PM 36.0 °F 28.0 °F 19.0 °F 50% 30.30 in 10.0 mi SSE 11.5 mph - N/A   Clear
3:53 PM 37.9 °F 30.5 °F 19.9 °F 48% 30.27 in 10.0 mi SE 11.5 mph 18.4 mph N/A   Clear
4:53 PM 37.9 °F 30.0 °F 19.0 °F 47% 30.25 in 10.0 mi SE 12.7 mph - N/A   Clear
5:53 PM 37.0 °F 28.5 °F 18.0 °F 46% 30.25 in 10.0 mi SE 13.8 mph - N/A   Clear
6:53 PM 35.1 °F 28.6 °F 16.0 °F 46% 30.25 in 10.0 mi SE 8.1 mph - N/A   Clear
7:53 PM 32.0 °F 25.6 °F 18.0 °F 56% 30.24 in 10.0 mi ESE 6.9 mph - N/A   Clear
8:53 PM 30.0 °F 23.2 °F 19.0 °F 64% 30.23 in 10.0 mi ESE 6.9 mph - N/A   Clear
9:53 PM 28.9 °F 22.8 °F 18.0 °F 64% 30.22 in 10.0 mi SE 5.8 mph - N/A   Clear
10:53 PM 27.0 °F 18.7 °F 18.0 °F 69% 30.20 in 10.0 mi SSE 8.1 mph - N/A   Clear
11:53 PM 27.0 °F 17.3 °F 17.1 °F 66% 30.17 in 10.0 mi SE 10.4 mph - N/A   Clear